Location: Ferintosh
(52.7647°N, 112.9692°W)
Time: 22:32:28
(UTC+00:00)

Vanguard 1 Rocket - Pass Details

Date: 27 May 2024
Orbit: 649 x 4221 km, 34.3° (Epoch: 13 June)

Event Time Altitude Azimuth Distance (km) Brightness Sun altitude
Rises 14:54:02 0° 220° (SW) 8,458 12.0 29.7°
Reaches altitude 10° 15:01:06 10° 213° (SSW) 7,338 11.8 30.7°
Maximum altitude 15:20:21 32° 161° (SSE) 4,689 11.7 33.6°
Drops below altitude 10° 15:33:21 10° 106° (ESE) 5,001 12.5 35.6°
Sets 15:36:58 0° 96° (E) 5,565 12.4 36.1°
